Change the Weather History Date:

Sunday, December 2, 2012

  Actual Average Record
Temperature  
Mean Temperature 59 °F -  
Max Temperature 62 °F 57 °F 73 °F (2011)
Min Temperature 55 °F 39 °F 28 °F (2004)
Degree Days  
Heating Degree Days 6    
Cooling Degree Days 0    
Growing Degree Days 4 (Base 50)    
Moisture  
Dew Point 52 °F    
Average Humidity 84    
Maximum Humidity 94    
Minimum Humidity 53    
Precipitation  
Precipitation 1.26 in 0.09 in 1.91 in (1961)
Month to date precipitation 2.02 0.18  
Year to date precipitation 17.02 15.45  
Since 1 July precipitation 7.16 3.55  
Sea Level Pressure  
Sea Level Pressure 29.87 in    
Wind  
Wind Speed 13 mph (South)    
Max Wind Speed 24 mph    
Max Gust Speed 35 mph    
Visibility 7 miles    
Events Rain    
T = Trace of Precipitation, MM = Missing Value Source: NWS Daily Summary

Daily Weather History Graph

Daily Weather History Graph

Search for Another Location

Airport or City:

Trip Planner

Search our weather history database for the weather conditions in past years. The results will help you decide how hot, cold, wet, or windy it might be!

Date:

Astronomy

Dec. 02, 2012 Rise Set
Actual Time 7:06 AM PST 4:45 PM PST
Civil Twilight 6:36 AM PST 5:14 PM PST
Nautical Twilight 6:03 AM PST 5:47 PM PST
Astronomical Twilight 5:31 AM PST 6:19 PM PST
Moon 8:36 PM PST (12/2) 9:59 AM PST (12/2)
Length of Visible Light 10h 37m
Length of Day
9h 39m
Waning Gibbous, 85% of the Moon is Illuminated
Dec 2
Waning Gibbous
Dec 6
Last Quarter
Dec 13
New
Dec 19
First Quarter
Dec 28
Full

Hourly Weather History & Observations

Time (PST) Temp. Dew Point Humidity Pressure Visibility Wind Dir Wind Speed Gust Speed Precip Events Conditions
12:53 AM 60.1 °F 57.0 °F 90% 29.86 in 5.0 mi SSE 15.0 mph 28.8 mph 0.02 in Rain Light Rain
1:53 AM 60.1 °F 55.9 °F 86% 29.83 in 5.0 mi SSE 11.5 mph 27.6 mph 0.03 in Rain Light Rain
2:22 AM 60.8 °F 55.4 °F 82% 29.83 in 7.0 mi SSE 10.4 mph 27.6 mph 0.04 in Rain Light Rain
2:53 AM 60.1 °F 55.9 °F 86% 29.85 in 4.0 mi South 12.7 mph 19.6 mph 0.06 in Rain Light Rain
3:04 AM 59.0 °F 55.4 °F 88% 29.83 in 2.5 mi South 11.5 mph 24.2 mph 0.02 in Rain Light Rain
3:13 AM 59.0 °F 55.4 °F 88% 29.82 in 3.0 mi SSE 12.7 mph 21.9 mph 0.05 in Rain Light Rain
3:53 AM 59.0 °F 55.9 °F 90% 29.80 in 3.0 mi SSE 15.0 mph 26.5 mph 0.08 in Rain Light Rain
4:12 AM 59.0 °F 55.4 °F 88% 29.78 in 4.0 mi SSE 15.0 mph 29.9 mph 0.01 in Rain Light Rain
4:22 AM 59.0 °F 55.4 °F 88% 29.77 in 8.0 mi SSE 18.4 mph 31.1 mph 0.01 in Rain Light Rain
4:36 AM 59.0 °F 55.4 °F 88% 29.76 in 10.0 mi SSE 18.4 mph 34.5 mph 0.02 in   Overcast
4:53 AM 59.0 °F 55.0 °F 87% 29.75 in 10.0 mi SSE 20.7 mph 34.5 mph 0.02 in   Overcast
5:46 AM 59.0 °F 55.4 °F 88% 29.75 in 10.0 mi SSE 19.6 mph 31.1 mph 0.00 in Rain Light Rain
5:53 AM 59.0 °F 55.0 °F 87% 29.75 in 10.0 mi SSE 19.6 mph 29.9 mph 0.00 in Rain Light Rain
6:53 AM 59.0 °F 55.0 °F 87% 29.74 in 3.0 mi SSE 19.6 mph 31.1 mph 0.16 in Rain Rain
7:24 AM 59.0 °F 55.4 °F 88% 29.74 in 2.5 mi SSE 13.8 mph 31.1 mph 0.16 in Rain Heavy Rain
7:32 AM 59.0 °F 55.4 °F 88% 29.73 in 3.0 mi SSE 16.1 mph 26.5 mph 0.22 in Rain Heavy Rain
7:53 AM 59.0 °F 55.9 °F 90% 29.75 in 2.0 mi South 13.8 mph 29.9 mph 0.29 in Rain Heavy Rain
8:11 AM 59.0 °F 53.6 °F 82% 29.78 in 2.0 mi SW 18.4 mph 31.1 mph 0.17 in Rain Heavy Rain
8:15 AM 57.2 °F 53.6 °F 88% 29.79 in 3.0 mi WSW 19.6 mph 31.1 mph 0.18 in Rain Heavy Rain
8:26 AM 57.2 °F 53.6 °F 88% 29.81 in 4.0 mi SW 10.4 mph - 0.23 in Rain Heavy Rain
8:53 AM 55.9 °F 54.0 °F 93% 29.82 in 4.0 mi SSW 9.2 mph - 0.34 in Rain Rain
9:43 AM 55.4 °F 53.6 °F 94% 29.84 in 4.0 mi South 8.1 mph 17.3 mph 0.15 in Rain Rain
9:53 AM 55.0 °F 53.1 °F 93% 29.84 in 4.0 mi South 9.2 mph - 0.17 in Rain Rain
10:53 AM 55.9 °F 53.1 °F 90% 29.87 in 10.0 mi South 8.1 mph - 0.09 in   Mostly Cloudy
11:05 AM 57.2 °F 53.6 °F 88% 29.88 in 10.0 mi SSW 6.9 mph - N/A   Mostly Cloudy
11:51 AM 60.8 °F 53.6 °F 77% 29.90 in 10.0 mi SW 13.8 mph - N/A   Scattered Clouds
11:53 AM 60.1 °F 54.0 °F 80% 29.90 in 10.0 mi SW 15.0 mph - N/A   Scattered Clouds
12:53 PM 61.0 °F 53.1 °F 75% 29.91 in 10.0 mi SSW 13.8 mph - N/A   Mostly Cloudy
1:53 PM 61.0 °F 51.1 °F 70% 29.94 in 10.0 mi SW 5.8 mph - 0.00 in Rain Light Rain
2:53 PM 62.1 °F 45.0 °F 53% 29.95 in 10.0 mi SW 10.4 mph - 0.00 in   Partly Cloudy
3:53 PM 60.1 °F 44.1 °F 55% 29.98 in 10.0 mi WSW 8.1 mph - N/A   Clear
4:53 PM 55.9 °F 46.0 °F 69% 30.00 in 10.0 mi Calm Calm - N/A   Clear
5:53 PM 52.0 °F 46.0 °F 80% 30.00 in 10.0 mi SSE 3.5 mph - N/A   Clear
6:53 PM 53.1 °F 46.0 °F 77% 30.02 in 10.0 mi SSW 5.8 mph - N/A   Clear
7:53 PM 51.1 °F 45.0 °F 80% 30.05 in 10.0 mi SSW 4.6 mph - N/A   Clear
8:53 PM 48.0 °F 45.0 °F 89% 30.05 in 10.0 mi Calm Calm - N/A   Clear
9:53 PM 46.0 °F 44.1 °F 93% 30.09 in 9.0 mi Calm Calm - N/A   Clear
10:53 PM 45.0 °F 43.0 °F 93% 30.11 in 10.0 mi Calm Calm - N/A   Clear
11:53 PM 46.0 °F 44.1 °F 93% 30.10 in 10.0 mi Calm Calm - N/A   Clear